Location: Misciano
(43.5000°N, 11.9500°E)
Time: 17:52:01
(UTC+00:00)

Cosmos 2100 Rocket - Pass Details

Date: 13 August 2020
Orbit: 957 x 1000 km, 82.9° (Epoch: 24 September)

Event Time Altitude Azimuth Distance (km) Brightness Sun altitude
Exits shadow 20:45:28 45° 156° (SSE) 1,283 4.2 -22.6°
Maximum altitude 20:47:17 66° 94° (E) 1,040 3.9 -22.8°
Drops below altitude 10° 20:53:23 10° 13° (NNE) 2,698 6.8 -23.5°
Sets 20:55:54 0° 11° (N) 3,650 7.6 -23.8°
